Regional Weather Roundup
Issued by NWS

Home | Current Version | Previous Version | Graphics & Text | Print | Product List | Glossary On
Versions: 1 2 3 4 5 6 7 8 9 10 11 12 13 14 15 16 17 18 19 20 21 22 23 24 25 26 27 28 29 30 31 32 33 34 35 36 37 38 39 40 41 42 43 44 45 46 47 48 49 50
000
ASUS43 KDMX 302104
RWRIA

WEATHER ROUNDUP FOR IOWA
NATIONAL WEATHER SERVICE DES MOINES IA
  ISSUED BY NWS QUAD CITIES IA IL
300 PM CST FRI JAN 30 2015

NOTE: "FAIR" INDICATES FEW OR NO CLOUDS BELOW 12,000 FEET WITH NO
SIGNIFICANT WEATHER AND/OR OBSTRUCTIONS TO VISIBILITY.

* - THESE STATIONS ARE NOT NWS STATIONS...THUS NOT UNDER NWS
QUALITY CONTROL.  THEY ALSO DO NOT REPORT WEATHER SUCH
AS PRECIPITATION OR FOG.

IAZ001>003-012>014-020>022-031>034-043>046-302200-
   NORTHWEST IOWA

CITY           SKY/WX    TMP DP  RH WIND       PRES   REMARKS
CARROLL *      SUNNY     36  21  55 S10       30.37S WCI  28
CHEROKEE *     CLEAR     35  26  69 S13       30.33F WCI  26
DENNISON *     SUNNY     36  23  60 S13       30.33F WCI  27
LE MARS *      SUNNY     36  27  69 S14       30.31F WCI  27
ORANGE CITY *  SUNNY     36  27  69 S16       30.29F WCI  26
SIOUX CITY     SUNNY     40  27  59 S13       30.32F WCI  32
SPENCER        SUNNY     34  23  64 S16       30.32F WCI  24
$$

IAZ055>058-069>071-079>083-090>094-302200-
   SOUTHWEST IOWA

CITY           SKY/WX    TMP DP  RH WIND       PRES   REMARKS
ATLANTIC *     SUNNY     36  19  51 S13       30.37F WCI  27
AUDUBON *      SUNNY     36  19  51 S8        30.38F WCI  29
CLARINDA *     PTSUNNY   36  19  51 S10       30.43F WCI  28
COUNCIL BLFS * MOSUNNY   36  23  60 S12       30.36F WCI  27
CRESTON *      SUNNY     36  18  48 S13       30.40F WCI  27
HARLAN *       SUNNY     36  23  60 S10G16    30.40F WCI  28
LAMONI         SUNNY     35  13  40 S10       30.42F WCI  27
RED OAK *      MOSUNNY   36  21  55 S12       30.40F WCI  27
SHENANDOAH *   PTSUNNY   36  23  60 S10       30.42F WCI  28
$$

IAZ047>049-059>061-072>074-084-302200-
   CENTRAL IOWA

CITY           SKY/WX    TMP DP  RH WIND       PRES   REMARKS
AMES           SUNNY     32  14  47 VRB3      30.42F
ANKENY *       SUNNY     34  12  40 VRB5      30.42F WCI  30
BOONE *        SUNNY     34  16  47 SW8       30.38F WCI  27
CHARITON *     SUNNY     34  16  47 SW8       30.42F WCI  27
DES MOINES     PTSUNNY   35  11  36 SW6       30.42F WCI  30
GRINNELL *     CLEAR     30  13  50 CALM      30.43F
KNOXVILLE *    SUNNY     34  12  40 CALM      30.42S
MARSHALLTOWN   SUNNY     30  11  45 S7        30.41F WCI  23
PELLA *        SUNNY     36  14  40 S3        30.45F
PERRY *          N/A     35  18  49 SW9       30.40F WCI  28
$$

IAZ004>006-015-016-023>025-035-036-302200-
   NORTH CENTRAL IOWA

CITY           SKY/WX    TMP DP  RH WIND       PRES   REMARKS
ALGONA *       SUNNY     30  23  74 S14       30.36F WCI  20
CLARION *      SUNNY     30  19  64 SW10      30.39F WCI  21
ESTHERVILLE    SUNNY     30  22  72 S14       30.32F WCI  19
FORT DODGE *   SUNNY     32  18  55 S8        30.39F WCI  25
MASON CITY     SUNNY     29  17  61 S12       30.39F WCI  19
WEBSTER CITY * SUNNY     32  18  55 S7        30.38F WCI  26
IOWA FALLS *   FAIR      30  16  56 S7        30.41F WCI  23
$$

IAZ007>011-017>019-026>030-037>042-050>054-066-302200-
   NORTHEAST IOWA

CITY           SKY/WX    TMP DP  RH WIND       PRES   REMARKS
CEDAR RAPIDS   SUNNY     30  12  47 SW5       30.44F WCI  25
CHARLES CITY * SUNNY     28   9  43 SW6       30.41F WCI  22
CLINTON *      SUNNY     27  14  59 W5        30.50S WCI  21
DECORAH *      SUNNY     25   3  39 VRB6      30.40F WCI  18
DUBUQUE        SUNNY     26  13  57 SW7       30.43F WCI  18
MONTICELLO *   SUNNY     30  12  47 VRB6      30.44F WCI  24
OELWEIN *      SUNNY     27   9  46 SW6       30.42F WCI  20
WATERLOO       SUNNY     29   6  38 SW6       30.42F WCI  23
$$

IAZ064-065-067-068-078-302200-
   EAST CENTRAL IOWA

CITY           SKY/WX    TMP DP  RH WIND       PRES   REMARKS
DAVENPORT      SUNNY     28  15  58 NW6       30.47F WCI  22
IOWA CITY      SUNNY     30  15  53 SW7       30.47F WCI  23
MT. PLEASANT * SUNNY     32  15  49 SW5       30.46F WCI  28
MUSCATINE *    SUNNY     32  14  47 CALM      30.48F
QUAD CITIES    SUNNY     30  14  51 W5        30.46F WCI  25
$$

IAZ062-063-075>077-085>089-095>099-302200-
   SOUTHEAST IOWA

CITY           SKY/WX    TMP DP  RH WIND       PRES   REMARKS
BURLINGTON     SUNNY     32  17  54 VRB5      30.47S WCI  27
FAIRFIELD *    SUNNY     32  14  47 SW3       30.46S
FORT MADISON * SUNNY     34  18  51 E3        30.47F
KEOKUK *       SUNNY     34  18  51 W6        30.46F WCI  29
OTTUMWA        SUNNY     33  14  45 W5        30.44F WCI  29
WASHINGTON *   SUNNY     32  18  55 VRB5      30.46F WCI  27
$$

ABBREVIATIONS USED IN REMARKS
   TC - TEMPERATURES IN CELSIUS
  WCI - WIND CHILL INDEX
   HX - HEAT INDEX
  VSB - VISIBILITY
$$


USA.gov is the U.S. government's official web portal to all federal, state and local government web resources and services.